Home   Weather   New York   Past weeks

Flag for USA Past Weather in New York, New York, USA — Yesterday and Last 2 Weeks

Now
73 °F

Light rain. Fog.


Feels Like: 69 °F
Forecast: 72 / 81 °F
Wind: No wind

Location: New York City - Central Park

Current Time: Aug 18, 2017 at 9:02:10 am

Latest Report: Aug 18, 2017 at 8:31 am


Visibility: 2 mi

Pressure: 29.92 "Hg

Humidity: 97%

Dew Point: 72 °F

Location of New YorkLocation

Past Weather in New York — Graph

°F

New York Temperature Yesterday

Maximum temperature yesterday: 82 °F (at 1:51 pm)
Minimum temperature yesterday: 70 °F (at 5:51 am)
Average temperature yesterday: 75 °F

High & Low Weather Summary for the Past Weeks

 TemperatureHumidityPressure
High86 °F (Aug 3, 1:51 pm)97% (Aug 4, 7:51 am)30.24 "Hg (Aug 4, 7:51 am)
Low64 °F (Aug 6, 6:51 am)40% (Aug 6, 1:51 pm)29.83 "Hg (Aug 5, 6:51 am)
Average73 °F74%30.01 "Hg
* Reported Aug 3 7:12 am — Aug 18 7:51 am, New York. Weather by CustomWeather, © 2017

Note: Actual official high and low records may vary slightly from our data, if they occured in-between our weather recording intervals... More about our weather records

Advertising

New York Weather History for the Previous 24 Hours

Scroll right to see more
 ConditionsComfort  
Time TempWeatherWind HumidityBarometerVisibility
7:51 am
Fri, Aug 18
74 °FLight rain. Fog.No wind94%29.88 "Hg2 mi
6:51 am76 °FPartly sunny.3 mph80%29.89 "Hg10 mi
5:51 am76 °FOvercast.3 mph77%29.89 "Hg10 mi
4:51 am76 °FMostly cloudy.5 mph80%29.89 "Hg10 mi
3:51 am76 °FPassing clouds.5 mph85%29.90 "Hg10 mi
2:51 am76 °FPartly cloudy.No wind88%29.91 "Hg8 mi
2:15 am77 °FPassing clouds.3 mph85%29.95 "Hg7 mi
1:51 am76 °FPassing clouds.7 mph88%29.92 "Hg7 mi
12:58 am76 °FFog.3 mph88%29.97 "Hg6 mi
12:51 am76 °FFog.3 mph88%29.95 "Hg6 mi
11:51 pm
Thu, Aug 17
75 °FClear.No wind88%29.97 "Hg7 mi
10:51 pm75 °FClear.No wind85%29.98 "Hg8 mi
9:51 pm74 °FClear.No wind88%29.98 "Hg9 mi
8:51 pm74 °FClear.5 mph82%29.98 "Hg10 mi
7:51 pm74 °FClear.No wind76%29.98 "Hg10 mi
6:51 pm76 °FSunny.5 mph60%29.97 "Hg10 mi
5:51 pm77 °FSunny.No wind56%29.97 "Hg10 mi
4:51 pm78 °FSunny.No wind56%29.98 "Hg10 mi
3:51 pm78 °FSunny.7 mph56%29.99 "Hg10 mi
2:51 pm80 °FSunny.3 mph56%30.01 "Hg10 mi
1:51 pm82 °FSunny.3 mph49%30.02 "Hg10 mi
12:51 pm81 °FSunny.5 mph53%30.04 "Hg10 mi
11:51 am80 °FSunny.6 mph51%30.05 "Hg10 mi
10:51 am76 °FSunny.No wind58%30.06 "Hg10 mi
9:51 am74 °FScattered clouds.No wind60%30.08 "Hg10 mi
Weather by CustomWeather, © 2017

See weather overviewHow to use our weather pages